Location: Dammartin
(48.9032°N, 1.6195°E)
Time: 19:53:09
(UTC+00:00)

BlueWalker 3 - Pass Details

Date: 17 April 2024
Orbit: 482 x 494 km, 53.2° (Epoch: 22 May)

Event Time Altitude Azimuth Distance (km) Brightness Sun altitude
Rises 19:21:28 0° 190° (S) 2,558 5.4 -5.8°
Reaches altitude 10° 19:24:25 10° 165° (SSE) 1,685 4.2 -6.3°
Maximum altitude 19:26:32 14° 132° (SE) 1,435 3.6 -6.6°
Drops below altitude 10° 19:28:39 10° 98° (E) 1,696 4.0 -6.9°
Enters shadow 19:30:02 - 84° (E) 2,064 4.5 -7.1°
